Tracking 19817 objects as of 17-Aug-2019
HD Live streaming from Space Station
objects crossing your sky now

FENGYUN 1C DEB

Track FENGYUN 1C DEB now!
10-day predictions


NORAD ID: 38490
Int'l Code: 1999-025ERZ
Perigee: 843.8 km
Apogee: 923.7 km
Inclination: 99.1 °
Period: 102.5 minutes
Semi major axis: 7254 km
RCS: 0.0092 m2 (small)
Launch date: May 10, 1999
Source: People's Republic of China (PRC)
Launch site: Taiyaun Space Center, China (TSC)

Note: This is SATELLITE DEBRIS
aabbcc
Your satellite tracking list
Your tracking list is empty




NASA's NSSDC Master Catalog

Two Line Element Set (TLE):
1 38490U 99025ERZ 14365.45229711 +.00002333 +00000-0 +14579-2 0  9998
2 38490 099.1383 076.7163 0055085 076.5300 284.1023 14.04976023221970
Source of the keplerian elements: AFSPC